Location: Wien
(48.2082°N, 16.3738°E)
Time: 11:41:27
(UTC+02:00)

Tiros 1 despin weight - Pass Details

Date: 18 September 2024
Orbit: 573 x 615 km, 48.2° (Epoch: 06 October)

Event Time Altitude Azimuth Distance (km) Brightness Sun altitude
Rises 07:54:57 0° 284° (WNW) 2,889 ? 12.2°
Reaches altitude 10° 07:57:19 10° 278° (W) 1,983 ? 12.6°
Maximum altitude 08:01:41 46° 206° (SSW) 836 ? 13.3°
Drops below altitude 10° 08:06:01 10° 134° (SE) 1,969 ? 14.0°
Sets 08:08:22 0° 128° (SE) 2,867 ? 14.4°
